Home > Weather > Bad Salzuflen > Past weeks

Flag for Germany Weather for the Past 2 Weeks in Bad Salzuflen, North Rhine-Westphalia, Germany

Now
50 °F

Broken clouds.


Feels Like: 43 °F
Forecast: 40 / 45 °F
Wind: 26 mph from Southwest

Location: Bueckeburg

Current Time: Feb 8, 2016 at 3:37:00 PM

Latest Report: Feb 8, 2016 at 2:20 PM


Visibility: N/A

Pressure: 29.18 "Hg

Humidity: 67%

Dew point: 39 °F

Location of Bad SalzuflenLocation

Historic Weather in Bad Salzuflen — Graph

°F

Bad Salzuflen Temperature Yesterday

Maximum temperature yesterday: 54 °F (at 11:20 AM)
Minimum temperature yesterday: 45 °F (at 9:20 PM)
Average temperature yesterday: 49 °F

High & Low Weather Summary for the Past Weeks

 TemperatureHumidityPressure
High54 °F (Jan 25, 1:20 PM)100% (Jan 24, 8:02 PM)30.36 "Hg (Jan 24, 8:02 PM)
Low36 °F (Jan 30, 9:20 PM)57% (Jan 28, 1:20 PM)29.18 "Hg (Feb 8, 1:20 PM)
Average46 °F82%29.93 "Hg
* Reported Jan 24 2:20 PM — Feb 8 2:20 PM, Bad Salzuflen, Weather by CustomWeather, © 2016

Note: Actual official high and low records may vary slightly from our data, if they occured in-between our weather recording intervals... More about our weather records

Advertising

Bad Salzuflen Weather History for the Previous 24 Hours

 ConditionsComfort  
Time TempWeatherWind HumidityBarometerVisibility
2:20 PM
Mon, Feb 8
50 °FBroken clouds.26 mph67%29.18 "HgN/A
1:20 PM48 °FPartly sunny.26 mph76%29.18 "HgN/A
12:20 PM48 °FPartly sunny.26 mph76%29.21 "HgN/A
11:20 AM46 °FBroken clouds.26 mph82%29.21 "HgN/A
10:20 AM48 °FRain. Broken clouds.32 mph76%29.21 "HgN/A
9:20 AM45 °FLight rain. Broken clouds.26 mph87%29.24 "HgN/A
8:20 AM45 °FRain. Partly sunny.26 mph87%29.24 "HgN/A
7:20 AM45 °FRain. Passing clouds.25 mph81%29.27 "HgN/A
6:20 AM46 °FPassing clouds.25 mph66%29.30 "HgN/A
5:20 AM45 °FPassing clouds.24 mph71%29.30 "HgN/A
4:20 AM45 °FLight rain. Passing clouds.23 mph66%29.36 "HgN/A
3:20 AM43 °FPartly cloudy.18 mph66%29.42 "HgN/A
2:20 AM43 °FPassing clouds.20 mph66%29.45 "HgN/A
1:20 AM45 °FPassing clouds.18 mph61%29.50 "HgN/A
12:20 AM45 °FPassing clouds.16 mph61%29.53 "HgN/A
11:20 PM
Sun, Feb 7
45 °FQuite cool.20 mph66%29.56 "HgN/A
10:20 PM45 °FPassing clouds.16 mph66%29.59 "HgN/A
9:20 PM45 °FPassing clouds.15 mph66%29.59 "HgN/A
8:20 PM46 °FPassing clouds.14 mph62%29.59 "HgN/A
7:20 PM46 °FPassing clouds.14 mph66%29.59 "HgN/A
6:20 PM48 °FPartly cloudy.16 mph66%29.56 "HgN/A
5:20 PM48 °FPartly sunny.21 mph66%29.53 "HgN/A
4:20 PM48 °FPartly sunny.15 mph76%29.53 "HgN/A
3:20 PM48 °FPartly sunny.16 mph76%29.53 "HgN/A
Weather by CustomWeather, © 2016

See weather overviewHow to use our weather pages